Regional Weather Roundup
Issued by NWS

Home | Current Version | Previous Version | Text Only | Print | Product List | Glossary Off
Versions: 1 2 3 4 5 6 7 8 9 10 11 12 13 14 15 16 17 18 19 20 21 22 23 24 25 26 27 28 29 30 31 32 33 34 35 36 37 38 39 40 41 42 43 44 45 46 47 48 49 50

000
ASUS43 KDMX 040507
RWRIA

WEATHER ROUNDUP FOR IOWA
NATIONAL WEATHER SERVICE DES MOINES IA
1200 AM CDT TUE AUG 04 2015

NOTE: "FAIR" INDICATES FEW OR NO CLOUDS BELOW 12,000 FEET WITH NO
SIGNIFICANT WEATHER AND/OR OBSTRUCTIONS TO VISIBILITY.

* - THESE STATIONS ARE NOT NWS STATIONS...THUS NOT UNDER NWS
QUALITY CONTROL.  THEY ALSO DO NOT REPORT WEATHER SUCH
AS PRECIPITATION OR FOG.

IAZ001>003-012>014-020>022-031>034-043>046-040600-
   NORTHWEST IOWA

CITY           SKY/WX    TMP DP  RH WIND       PRES   REMARKS
CARROLL *      CLEAR     63  61  94 CALM      29.99R
CHEROKEE *     PTCLDY    61  61 100 CALM      29.99R
DENISON *      CLOUDY    66  63  88 CALM      29.98R
LE MARS *      PTCLDY    64  63  94 CALM      29.99S
ORANGE CITY *  CLEAR     64  61  88 CALM      29.99R
SHELDON *      CLEAR     59  59 100 NE6       29.98R
SIOUX CITY     CLOUDY    69  63  81 S3        29.98R
SPENCER        CLEAR     61  57  87 W6        29.98S
STORM LAKE *   CLEAR     64  59  82 SW6       30.00S
$$

IAZ055>058-069>071-079>083-090>094-040600-
   SOUTHWEST IOWA

CITY           SKY/WX    TMP DP  RH WIND       PRES   REMARKS
ATLANTIC *     MOCLDY    66  64  94 N3        29.99S
AUDUBON *      PTCLDY    64  61  88 CALM      30.01R
CLARINDA *     CLOUDY    72  64  78 CALM      29.98S
COUNCIL BLFS *   N/A     72  64  78 E7        29.98S
CRESTON *      MOCLDY    66  64  94 CALM      30.01S
HARLAN  *      CLOUDY    66  66 100 CALM      30.02S
LAMONI         CLOUDY    70  66  87 NE5       29.98S
RED OAK *      CLOUDY    72  66  83 NE5       29.98S
SHENANDOAH *   MOCLDY    70  68  94 CALM      29.97S
$$

IAZ047>049-059>061-072>074-084-040600-
   CENTRAL IOWA

CITY           SKY/WX    TMP DP  RH WIND       PRES   REMARKS
AMES           CLEAR     62  59  90 CALM      29.97S
ANKENY *       CLEAR     63  61  94 CALM      29.98R
CHARITON *     MOCLDY    68  63  83 SE3       29.99R
DES MOINES     PTCLDY    71  58  63 S3        29.97R
GRINNELL*      CLEAR     63  57  82 CALM      29.98S
KNOXVILLE *    PTCLDY    64  61  88 S5        29.97R
MARSHALLTOWN   CLEAR     62  59  90 CALM      29.96S
PELLA *        CLEAR     63  63  99 CALM      29.99R
PERRY *          N/A     64  63  94 CALM      29.99R
$$

IAZ004>006-015-016-023>025-035-036-040600-
   NORTH CENTRAL IOWA

CITY           SKY/WX    TMP DP  RH WIND       PRES   REMARKS
ALGONA *       CLEAR     63  59  88 N5        29.97S
CLARION *      CLEAR     59  57  94 CALM      29.97S
ESTHERVILLE    CLEAR     60  57  89 N5        29.97F
FORT DODGE *   CLEAR     61  57  88 CALM      29.98S
MASON CITY     CLEAR     61  57  87 NW6       29.98S
FOREST CITY *  CLEAR     57  57 100 CALM      29.97F
IOWA FALLS *     N/A     61  57  88 SW3       29.98S
$$

IAZ007>011-017>019-026>030-037>042-050>054-066-040600-
   NORTHEAST IOWA

CITY           SKY/WX    TMP DP  RH WIND       PRES   REMARKS
CEDAR RAPIDS   CLEAR     62  60  93 CALM      29.95S
CHARLES CITY * CLEAR     57  57 100 W5        29.97S
CLINTON *      CLEAR     61  55  82 CALM      29.97S
DECORAH *      CLEAR     61  54  77 CALM      29.95R
DUBUQUE        CLEAR     59  54  83 CALM      29.95S
MONTICELLO *   CLEAR     57  55  94 CALM      29.95S
OELWEIN *      CLEAR     59  57  94 CALM      29.97S
WATERLOO       CLEAR     60  57  89 CALM      29.95S
$$

IAZ064-065-067-068-078-040600-
   EAST CENTRAL IOWA

CITY           SKY/WX    TMP DP  RH WIND       PRES   REMARKS
DAVENPORT      CLEAR     61  57  87 W3        29.96S
IOWA CITY      CLEAR     63  58  83 CALM      29.97R
MT. PLEASANT * CLEAR     63  59  88 CALM      29.97S
MUSCATINE *    CLEAR     63  57  82 CALM      29.96S
QUAD CITIES    CLEAR     63  57  81 CALM      29.95S
$$

IAZ062-063-075>077-085>089-095>099-040600-
   SOUTHEAST IOWA

CITY           SKY/WX    TMP DP  RH WIND       PRES   REMARKS
BURLINGTON     CLEAR     63  61  93 CALM      29.97S
FAIRFIELD *    CLEAR     61  59  94 CALM      29.97S
FORT MADISON * CLEAR     64  61  88 CALM      29.98S
KEOKUK *       PTCLDY    68  63  83 N5        29.96S
OSKALOOSA *      N/A     59  57  94 CALM      29.98S
CENTERVILLE *  PTCLDY    66  63  88 NE3       30.00S
OTTUMWA        CLEAR     60  58  92 S3        29.96S
WASHINGTON *   CLEAR     61  59  94 SW3       29.98S
$$

ABBREVIATIONS USED IN REMARKS
   TC - TEMPERATURES IN CELSIUS
  WCI - WIND CHILL INDEX
   HX - HEAT INDEX
  VSB - VISIBILITY
$$



USA.gov is the U.S. government's official web portal to all federal, state and local government web resources and services.